[[{"header":{"parameterUnit":"m.s-1","parameterCategory":1,"la1":30.2991,"la2":30.254,"lo1":-89.0895,"lo2":-89.0444,"dy":0.0017,"dx":0.0017,"nx":28,"ny":28,"refTime":"2024-04-13T21:00:00:Z","depth":0,"parameterNumber":2,"parameterNumberName":"U-component_of_WINDS"},"data":[0,0,0,0,0,0,0,0,0,0,0,0,0,0,0,0,0,0,0,0,0,0,0,0,0,0,0,0,0,0,0,0,0,0,0,0,0,0,0,0,0,0,0,0,0,0,0,0,0,0,0,0,0,0,0,0,0,0,-2.855,-2.8551,0,-2.8642,-2.8643,-2.8644,-2.863,-2.8628,-2.8627,-2.8625,-2.8719,-2.8723,-2.8727,0,0,0,0,0,0,0,0,0,0,0,0,0,-2.8363,-2.8367,-2.855,-2.8551,-2.8553,-2.8642,-2.8643,-2.8644,-2.863,-2.8628,-2.8626,-2.8624,-2.8718,-2.8722,-2.8727,0,0,0,0,0,0,0,0,0,0,0,0,0,-2.8449,-2.8368,-2.855,-2.8556,-2.8558,-2.8642,-2.8643,-2.8645,-2.863,-2.8628,-2.8626,-2.8623,-2.8716,-2.8722,-2.8728,-2.8811,0,0,-2.8746,-2.8748,0,0,0,0,0,0,0,0,-2.8444,-2.8456,-2.8554,-2.8556,-2.8558,-2.8622,-2.8612,-2.8701,-2.8631,-2.8603,-2.8625,-2.8622,-2.8689,-2.8697,-2.8719,-2.8816,-2.882,-2.8746,-2.875,-2.8752,-2.8754,0,0,0,0,0,0,0,-2.8438,-2.8452,-2.8587,-2.8555,-2.8558,-2.8555,-2.8564,-2.8628,-2.8658,-2.8605,-2.8604,-2.8615,-2.8689,-2.8713,-2.8721,-2.8821,-2.8746,-2.8751,-2.8755,-2.8757,-2.8992,-2.8995,0,0,0,0,0,0,-2.843,-2.8447,-2.8584,-2.8589,-2.8494,-2.856,-2.857,-2.8604,-2.8657,-2.8663,-2.8617,-2.8614,-2.8704,-2.8714,-2.8724,-2.8826,-2.8752,-2.8758,-2.8761,-2.8989,-2.8993,-2.8996,0,0,0,0,0,0,-2.8426,-2.8443,-2.858,-2.8518,-2.8535,-2.8566,-2.8603,-2.8607,-2.8631,-2.8666,-2.8671,-2.8636,-2.8703,-2.8716,-2.879,-2.8829,-2.8761,-2.8766,-2.8986,-2.899,-2.8994,-2.9029,0,0,0,0,0,0,-2.8421,-2.8441,-2.8473,-2.8519,-2.8538,-2.8644,-2.8605,-2.861,-2.8641,-2.8638,-2.8686,-2.8691,-2.8702,-2.8781,-2.8796,-2.8836,-2.8771,-2.8983,-2.8988,-2.8993,-2.9025,-2.9034,-2.9042,0,0,0,0,0,-2.8414,-2.8479,-2.8475,-2.8491,-2.8579,-2.8646,-2.8657,-2.8668,-2.8644,-2.8677,-2.87,-2.869,-2.8823,-2.8789,-2.8805,-2.8847,-2.898,-2.8987,-2.8992,-2.9021,-2.9032,-2.9041,0,0,0,0,0,0,-2.8437,-2.8485,-2.8481,-2.8562,-2.86,-2.8643,-2.8684,-2.868,-2.8725,-2.8721,-2.8733,-2.8744,-2.8819,-2.8841,-2.8802,-2.8932,-2.8898,-2.8908,-2.8914,-2.8925,-2.8933,-2.8926,-2.8776,0,0,0,0,0,-2.8452,-2.8502,-2.8541,-2.8609,-2.8629,-2.8654,-2.8683,-2.8689,-2.8729,-2.8744,-2.8773,-2.8812,-2.8862,-2.8895,-2.8944,-2.9029,-2.9038,-2.9066,-2.9074,-2.9081,-2.9089,-2.9135,-2.9148,-2.9015,-2.9015,-2.9015,0,0,-2.8482,-2.8514,-2.8545,-2.8615,-2.8645,-2.8697,-2.8667,-2.8723,-2.8762,-2.8753,-2.8824,-2.8847,-2.8891,-2.8971,-2.9008,-2.8992,-2.9128,-2.9089,-2.9094,-2.9098,-2.9143,-2.9155,-2.9166,-2.9019,-2.9019,-2.9018,0,0,-2.8563,-2.8593,-2.8653,-2.8684,-2.873,-2.8746,-2.8761,-2.8806,-2.882,-2.8892,-2.8887,-2.8933,-2.902,-2.9052,-2.908,-2.9175,-2.9168,-2.9191,-2.9235,-2.928,-2.9291,-2.93,-2.9333,-2.9345,-2.9199,-2.9199,-2.9199,0,-2.8594,-2.8672,-2.8684,-2.8741,-2.8772,-2.8767,-2.8828,-2.8858,-2.8917,-2.8939,-2.8921,-2.903,-2.906,-2.9147,-2.917,-2.9193,-2.921,-2.9185,-2.9288,-2.9298,-2.9306,-2.9338,-2.9351,-2.9201,-2.9201,-2.9201,-2.9201,0,-2.8709,-2.8763,-2.8806,-2.8864,-2.89,-2.8959,-2.898,-2.9015,-2.9018,-2.9036,-2.911,-2.9146,-2.9202,-2.9223,-2.9227,-2.9312,-2.93,-2.9285,-2.9251,-2.9321,-2.9351,-2.9364,-2.9205,-2.9204,-2.9203,-2.9203,0,0,-2.8804,-2.8869,-2.8885,-2.8911,-2.8962,-2.9005,-2.9064,-2.9119,-2.9148,-2.9191,-2.924,-2.9315,-2.9301,-2.9333,-2.934,-2.938,-2.9453,-2.936,-2.9362,-2.9375,-2.9548,-2.9558,-2.9572,-2.945,-2.9452,-2.9454,-2.9544,0,-2.889,-2.8993,-2.9006,-2.9099,-2.9149,-2.9146,-2.9198,-2.9235,-2.9254,-2.93,-2.9322,-2.9374,-2.9353,-2.9372,-2.9412,-2.9436,-2.9488,-2.943,-2.9495,-2.9497,-2.9482,-2.9588,-2.9598,-2.9681,-2.9556,-2.9558,-2.956,0,-2.9002,-2.9048,-2.9145,-2.919,-2.9211,-2.9257,-2.9309,-2.9353,-2.9396,-2.9407,-2.9443,-2.9446,-2.9508,-2.9473,-2.9558,-2.9518,-2.9546,-2.9563,-2.9566,-2.9571,-2.9531,-2.9594,-2.9708,-2.972,-2.9578,-2.9577,-2.9576,0,-2.9061,-2.9147,-2.9216,-2.9239,-2.9293,-2.9325,-2.935,-2.939,-2.9423,-2.9468,-2.9489,-2.9542,-2.957,-2.9611,-2.9628,-2.9601,-2.9712,-2.9679,-2.9723,-2.9722,-2.9744,-2.9742,-2.9863,-2.9765,-2.9765,-2.9765,-2.9764,0,-2.9154,-2.9213,-2.9243,-2.9285,-2.9352,-2.9367,-2.9433,-2.9456,-2.9492,-2.9539,-2.9541,-2.9585,-2.9606,-2.9654,-2.9668,-2.9735,-2.9749,-2.9759,-2.9762,-2.9758,-2.9757,-2.9775,-2.9769,-2.9768,-2.9767,-2.9767,-2.9766,0,-2.923,-2.9252,-2.9327,-2.9373,-2.9386,-2.9433,-2.9473,-2.9514,-2.9534,-2.9593,-2.9608,-2.9639,-2.9696,-2.9717,-2.9786,-2.9796,-2.9874,-2.9873,-2.9859,-2.9859,-2.9901,-2.9897,-3.0037,-3.0056,-2.9947,-2.9948,-2.9949,0,-2.9287,-2.9332,-2.9383,-2.9415,-2.944,-2.9491,-2.9524,-2.9542,-2.9577,-2.963,-2.9665,-2.9721,-2.9766,-2.9857,-2.9885,-2.9938,-2.9938,-2.9983,-2.9945,-2.994,-2.9937,-2.9933,-2.9938,-2.9989,-2.999,-2.9991,-2.9992,0,-2.9385,-2.9394,-2.9442,-2.9494,-2.9533,-2.9575,-2.9616,-2.9642,-2.9666,-2.9705,-2.9762,-2.9798,-2.9868,-2.9924,-2.9979,-3.0004,-3.0002,-3.0004,-3.0017,-3.0012,-3.0002,-3.0007,-2.9876,-3.0,-2.9999,-2.9999,-2.9998,-2.9998,-2.9453,-2.9493,-2.9535,-2.9588,-2.9621,-2.9659,-2.97,-2.9725,-2.9774,-2.9832,-2.984,-2.9902,-2.9945,-3.0018,-3.0046,-3.0095,-3.0082,-3.0101,-3.0106,-3.0109,-3.0112,-2.9996,-3.0105,-3.0105,-3.0104,-3.0104,-3.0104,0,-2.955,-2.9577,-2.9626,-2.9683,-2.9725,-2.972,-2.9766,-2.9801,-2.9855,-2.9895,-2.994,-3.0007,-3.0061,-3.0095,-3.015,-3.0183,-3.0183,-3.0196,-3.0193,-3.0199,-3.012,-3.0103,-3.0195,-3.0195,-3.0195,-3.0195,-3.0195,-3.0195,-2.9605,-2.9673,-2.9687,-2.9772,-2.9799,-2.9859,-2.9885,-2.9921,-2.9953,-3.0027,-3.0072,-3.0094,-3.0132,-3.0189,-3.0239,-3.0248,-3.0268,-3.0282,-3.0289,-3.0214,-3.0205,-3.0196,-3.0179,-3.0286,-3.0286,-3.0364,-3.0365,-3.0365]},{"header":{"parameterUnit":"m.s-1","parameterCategory":1,"la1":30.2991,"la2":30.254,"lo1":-89.0895,"lo2":-89.0444,"dy":0.0017,"dx":0.0017,"nx":28,"ny":28,"refTime":"2024-04-13T21:00:00:Z","depth":0,"parameterNumber":3,"parameterNumberName":"V-component_of_WINDS"},"data":[0,0,0,0,0,0,0,0,0,0,0,0,0,0,0,0,0,0,0,0,0,0,0,0,0,0,0,0,0,0,0,0,0,0,0,0,0,0,0,0,0,0,0,0,0,0,0,0,0,0,0,0,0,0,0,0,0,0,3.0349,3.0349,0,3.0373,3.0373,3.0373,3.035,3.0349,3.0348,3.0347,3.037,3.0371,3.0373,0,0,0,0,0,0,0,0,0,0,0,0,0,3.0282,3.0283,3.0349,3.0349,3.035,3.0372,3.0373,3.0373,3.035,3.0349,3.0348,3.0347,3.0369,3.0371,3.0373,0,0,0,0,0,0,0,0,0,0,0,0,0,3.0309,3.0284,3.0349,3.0341,3.034,3.0372,3.0373,3.0373,3.035,3.0349,3.0347,3.0346,3.0369,3.0371,3.0373,3.0414,0,0,3.038,3.038,0,0,0,0,0,0,0,0,3.0307,3.0311,3.0342,3.0342,3.0341,3.0357,3.0357,3.0387,3.035,3.0346,3.0347,3.0345,3.0366,3.0369,3.0376,3.0415,3.0416,3.038,3.0381,3.0382,3.0383,0,0,0,0,0,0,0,3.0306,3.031,3.0358,3.0342,3.0342,3.0335,3.0338,3.0363,3.0364,3.0347,3.0345,3.0348,3.0366,3.0374,3.0376,3.0416,3.038,3.0382,3.0383,3.0384,3.0488,3.0489,0,0,0,0,0,0,3.0305,3.0309,3.0358,3.0359,3.0321,3.0338,3.034,3.0353,3.0363,3.0364,3.0349,3.0347,3.0371,3.0374,3.0377,3.0425,3.0382,3.0384,3.0385,3.0486,3.0488,3.049,0,0,0,0,0,0,3.0303,3.0309,3.0357,3.0333,3.0339,3.034,3.0355,3.0354,3.0362,3.0365,3.0365,3.0358,3.037,3.0374,3.0405,3.0425,3.0385,3.0387,3.0485,3.0487,3.0489,3.0521,0,0,0,0,0,0,3.0302,3.0309,3.0325,3.0334,3.034,3.0385,3.0356,3.0356,3.0366,3.0364,3.0373,3.0373,3.0369,3.0401,3.0407,3.0427,3.0389,3.0483,3.0486,3.0488,3.0518,3.0524,3.0529,0,0,0,0,0,3.0299,3.0333,3.0326,3.0332,3.0361,3.0386,3.0389,3.0384,3.0368,3.0384,3.0386,3.0373,3.0422,3.0405,3.0411,3.0432,3.0482,3.0485,3.0488,3.0515,3.0523,3.0529,0,0,0,0,0,0,3.0327,3.0334,3.0327,3.0365,3.0375,3.0382,3.0402,3.0392,3.0407,3.0404,3.0396,3.0398,3.043,3.0434,3.0415,3.0471,3.0449,3.0454,3.0468,3.0475,3.048,3.0478,3.039,0,0,0,0,0,3.0337,3.0358,3.0363,3.0396,3.0401,3.0401,3.0411,3.0406,3.0416,3.0421,3.0425,3.0434,3.0452,3.0463,3.048,3.0518,3.0519,3.0536,3.0541,3.0546,3.055,3.0569,3.0576,3.0501,3.0501,3.05,0,0,3.0359,3.0366,3.0379,3.0401,3.0409,3.0429,3.0404,3.0427,3.0442,3.0424,3.0453,3.0456,3.0466,3.0501,3.0516,3.0505,3.0571,3.055,3.0554,3.0555,3.0573,3.058,3.0587,3.0503,3.0502,3.0502,0,0,3.0409,3.0417,3.0444,3.0452,3.0463,3.0462,3.0469,3.0477,3.0479,3.0508,3.0494,3.0511,3.0542,3.055,3.0557,3.0609,3.0598,3.0614,3.0643,3.0662,3.0668,3.0673,3.0691,3.0697,3.0618,3.0619,3.0619,0,3.0435,3.0466,3.046,3.0483,3.0493,3.0477,3.0505,3.0512,3.0528,3.0535,3.0522,3.056,3.0566,3.0601,3.0613,3.0621,3.0627,3.0613,3.0668,3.0673,3.0678,3.0694,3.0701,3.062,3.062,3.062,3.062,0,3.0496,3.0517,3.0538,3.0554,3.0566,3.0591,3.0588,3.0601,3.0595,3.0595,3.0624,3.0631,3.0647,3.0655,3.065,3.069,3.0682,3.0669,3.0646,3.0687,3.0702,3.0709,3.0623,3.0623,3.0622,3.0621,0,0,3.0565,3.0576,3.0584,3.059,3.0601,3.0617,3.0641,3.0658,3.0668,3.068,3.0699,3.0725,3.0712,3.0721,3.0715,3.0732,3.0771,3.0717,3.0717,3.0726,3.0815,3.0824,3.0832,3.0764,3.0765,3.0766,3.0814,0,3.0615,3.0657,3.0652,3.0692,3.0711,3.0696,3.0716,3.0725,3.0725,3.0741,3.0741,3.0759,3.0741,3.0746,3.0762,3.0763,3.0789,3.076,3.0781,3.0782,3.0779,3.084,3.0851,3.0895,3.082,3.0821,3.0822,0,3.0679,3.0692,3.0734,3.0741,3.0748,3.0767,3.0781,3.0797,3.0805,3.0804,3.0814,3.0805,3.0828,3.0805,3.0836,3.0817,3.0825,3.0827,3.0828,3.083,3.0804,3.0843,3.091,3.0916,3.0831,3.083,3.083,0,3.0724,3.0752,3.078,3.0786,3.0795,3.0809,3.0813,3.082,3.083,3.0842,3.0848,3.0863,3.0871,3.0882,3.0877,3.0861,3.0909,3.0886,3.0908,3.0908,3.0919,3.0918,3.0987,3.0925,3.0925,3.0925,3.0924,0,3.078,3.0806,3.0801,3.0818,3.0846,3.084,3.0868,3.087,3.0876,3.0893,3.0881,3.0897,3.089,3.0905,3.0902,3.0927,3.0931,3.0931,3.0929,3.0931,3.0931,3.0937,3.0933,3.0926,3.0926,3.0926,3.0925,0,3.0835,3.0833,3.0862,3.0868,3.087,3.089,3.0895,3.091,3.091,3.0931,3.0936,3.0934,3.0952,3.0948,3.0967,3.0965,3.0997,3.0992,3.0994,3.0993,3.1015,3.1013,3.1089,3.1099,3.1031,3.1032,3.1032,0,3.0871,3.089,3.0898,3.0908,3.0913,3.093,3.094,3.0934,3.0944,3.0955,3.0969,3.0985,3.0998,3.1026,3.1027,3.1041,3.1036,3.1062,3.1038,3.1039,3.1035,3.1034,3.1035,3.1066,3.1067,3.1068,3.1068,0,3.0934,3.0932,3.0947,3.0961,3.0973,3.0984,3.0993,3.1002,3.0996,3.1009,3.1026,3.1036,3.1055,3.1071,3.1084,3.1087,3.1077,3.1076,3.1081,3.1084,3.1084,3.1083,3.1006,3.1074,3.1073,3.1073,3.1073,3.1072,3.098,3.0997,3.1004,3.102,3.1027,3.1036,3.105,3.1051,3.1066,3.1081,3.1076,3.1096,3.1102,3.1119,3.1124,3.1138,3.1129,3.1137,3.1139,3.1141,3.1144,3.1082,3.1141,3.1141,3.114,3.114,3.114,0,3.1043,3.1046,3.1062,3.1075,3.1088,3.1076,3.1086,3.1097,3.1115,3.1122,3.1134,3.1154,3.1169,3.117,3.1184,3.1196,3.1191,3.1199,3.1198,3.1199,3.1152,3.1145,3.1203,3.1203,3.1203,3.1203,3.1203,3.1203,3.1077,3.1103,3.1101,3.113,3.1133,3.1153,3.1159,3.1167,3.1172,3.1195,3.1207,3.1208,3.1212,3.1226,3.1239,3.1239,3.1244,3.1255,3.1253,3.1209,3.1202,3.1197,3.119,3.1256,3.1256,3.1298,3.1299,3.1299]}]]